User: anonymous   Login
Location: La Brionne
(46.1728°N, 1.7849°E)
Time: 03:57:20
(UTC+00:00)
Language:

Meteor 2-5 Rocket - Orbit

View from above orbital plane
View from above orbital plane
View from above satellite
View from above satellite

Ground track
Ground track

The orbit data is extracted from the following two-line orbital elements,

1 11608U 79095B   21289.60107392 -.00000024  00000-0 -22115-4 0  9999
2 11608  81.2095 115.3351 0055320  37.9347 322.5698 14.06177476152220
Epoch (UTC): 16 October 2021 14:25:32
Eccentricity: 0.0055320
inclination: 81.2095°
perigee height: 832 km
apogee height: 912 km
right ascension of ascending node: 115.3351°
argument of perigee: 37.9347°
revolutions per day: 14.06177476
mean anomaly at epoch: 322.5698°
orbit number at epoch: 15222

The dashed part of the orbit path shows where the satellite is in the earth's shadow,  

DLR